Zurück zum Katalog

ONEWEB-0270

AktivKommunikationPO
NORAD 48988·PAYLOAD·🇬🇧 United Kingdom

Gestartet Jul 1, 2021 von Vostochny Cosmodrome

Loading…

Nächste Überflüge (nächste 24 Stunden)

TLE

AktuellSource: CelesTrak SupGP

Epoche: Sep 14, 2026, 17:10 UTC

1 48988C 21060X   26257.71546713  .00003481  00000+0  91179-2 0  2573
2 48988  87.9143 211.0038 0002006  69.9007 325.9065 13.16590679    13

Verfolge ONEWEB-0270 in Echtzeit mit AllMySat

Download on the App Store